Time,TemperatureF,DewpointF,PressureIn,WindDirection,WindDirectionDegrees,WindSpeedMPH,WindSpeedGustMPH,Humidity,HourlyPrecipIn,Conditions,Clouds,dailyrainin,SolarRadiationWatts/m^2,SoftwareType,DateUTC
2013-03-04 00:02:00,22.1,29.7,30.02,West,274,7.0,14.0,21,0.00,,,0.01,0.0,meteohub,2013-03-04 05:02:00,
2013-03-04 00:07:00,22.1,29.7,30.02,WSW,251,4.0,17.0,21,0.00,,,0.00,0.0,meteohub,2013-03-04 05:07:00,
2013-03-04 00:12:00,22.1,29.7,30.02,West,276,8.0,17.0,21,0.00,,,0.00,0.0,meteohub,2013-03-04 05:12:00,
2013-03-04 00:17:00,21.9,29.7,30.02,WSW,250,8.0,17.0,21,0.00,,,0.00,0.0,meteohub,2013-03-04 05:17:00,
2013-03-04 00:22:00,21.9,29.7,30.02,West,275,6.0,14.0,21,0.00,,,0.00,0.0,meteohub,2013-03-04 05:22:00,
2013-03-04 00:27:00,21.9,29.7,30.03,WSW,252,8.0,12.0,21,0.00,,,0.00,0.0,meteohub,2013-03-04 05:27:00,
2013-03-04 00:32:00,21.9,29.7,30.03,WNW,283,9.0,14.0,21,0.00,,,0.00,0.0,meteohub,2013-03-04 05:32:00,
2013-03-04 00:37:00,21.9,29.7,30.03,West,274,8.0,14.0,21,0.00,,,0.00,0.0,meteohub,2013-03-04 05:37:00,
2013-03-04 00:42:00,21.9,29.7,30.03,West,265,4.0,13.0,21,0.00,,,0.00,0.0,meteohub,2013-03-04 05:42:00,
2013-03-04 00:47:00,21.9,29.7,30.03,WNW,282,10.0,13.0,21,0.00,,,0.00,0.0,meteohub,2013-03-04 05:47:00,
2013-03-04 00:52:00,21.9,29.7,30.03,West,260,5.0,14.0,21,0.00,,,0.00,0.0,meteohub,2013-03-04 05:52:00,
2013-03-04 00:57:00,22.1,29.7,30.04,WNW,290,6.0,14.0,21,0.00,,,0.00,0.0,meteohub,2013-03-04 05:57:00,
2013-03-04 01:02:00,21.9,29.7,30.03,WNW,290,6.0,14.0,21,0.00,,,0.00,0.0,meteohub,2013-03-04 06:02:00,
2013-03-04 01:07:00,21.9,29.7,30.04,West,270,8.0,12.0,21,0.00,,,0.00,0.0,meteohub,2013-03-04 06:07:00,
2013-03-04 01:12:00,21.9,29.7,30.04,West,279,9.0,12.0,21,0.00,,,0.00,0.0,meteohub,2013-03-04 06:12:00,
2013-03-04 01:17:00,21.9,29.7,30.04,NW,306,5.0,12.0,21,0.00,,,0.00,0.0,meteohub,2013-03-04 06:17:00,
2013-03-04 01:22:00,22.1,29.7,30.04,WSW,258,3.0,11.0,21,0.00,,,0.00,0.0,meteohub,2013-03-04 06:22:00,
2013-03-04 01:27:00,22.1,29.7,30.04,WSW,258,7.0,11.0,21,0.00,,,0.00,0.0,meteohub,2013-03-04 06:27:00,
2013-03-04 01:32:00,22.1,29.7,30.04,West,277,6.0,13.0,21,0.00,,,0.00,0.0,meteohub,2013-03-04 06:32:00,
2013-03-04 01:37:00,22.1,29.7,30.04,West,269,6.0,13.0,21,0.00,,,0.00,0.0,meteohub,2013-03-04 06:37:00,
2013-03-04 01:42:00,22.3,29.7,30.04,West,269,7.0,13.0,21,0.00,,,0.00,0.0,meteohub,2013-03-04 06:42:00,
2013-03-04 01:47:00,22.3,29.7,30.04,WNW,303,9.0,12.0,21,0.00,,,0.00,0.0,meteohub,2013-03-04 06:47:00,
2013-03-04 01:52:00,22.3,29.7,30.05,NNW,336,7.0,12.0,21,0.00,,,0.00,0.0,meteohub,2013-03-04 06:52:00,
2013-03-04 01:57:00,22.3,29.7,30.04,West,275,5.0,12.0,21,0.00,,,0.00,0.0,meteohub,2013-03-04 06:57:00,
2013-03-04 02:02:00,22.3,29.7,30.04,WNW,292,12.0,19.0,21,0.00,,,0.00,0.0,meteohub,2013-03-04 07:02:00,
2013-03-04 02:07:00,22.5,29.7,30.05,WNW,295,6.0,19.0,21,0.00,,,0.00,0.0,meteohub,2013-03-04 07:07:00,
2013-03-04 02:12:00,22.5,29.7,30.04,West,259,4.0,19.0,21,0.00,,,0.00,0.0,meteohub,2013-03-04 07:12:00,
2013-03-04 02:17:00,22.5,29.7,30.05,WNW,284,7.0,16.0,21,0.00,,,0.00,0.0,meteohub,2013-03-04 07:17:00,
2013-03-04 02:22:00,22.5,29.7,30.05,North,355,4.0,12.0,21,0.00,,,0.00,0.0,meteohub,2013-03-04 07:22:00,
2013-03-04 02:27:00,22.3,29.7,30.05,NW,304,9.0,12.0,21,0.00,,,0.00,0.0,meteohub,2013-03-04 07:27:00,
2013-03-04 02:32:00,22.5,29.7,30.05,NW,315,7.0,13.0,21,0.00,,,0.00,0.0,meteohub,2013-03-04 07:32:00,
2013-03-04 02:37:00,22.5,29.7,30.05,West,265,5.0,14.0,21,0.00,,,0.00,0.0,meteohub,2013-03-04 07:37:00,
2013-03-04 02:42:00,22.5,29.7,30.05,WNW,291,10.0,14.0,21,0.00,,,0.00,0.0,meteohub,2013-03-04 07:42:00,
2013-03-04 02:47:00,22.5,29.7,30.05,WNW,286,10.0,16.0,21,0.00,,,0.00,0.0,meteohub,2013-03-04 07:47:00,
2013-03-04 02:52:00,22.5,28.6,30.05,NW,310,9.0,16.0,20,0.00,,,0.00,0.0,meteohub,2013-03-04 07:52:00,
2013-03-04 02:57:00,22.5,29.7,30.05,NW,319,8.0,16.0,21,0.00,,,0.00,0.0,meteohub,2013-03-04 07:57:00,
2013-03-04 03:02:00,22.5,29.7,30.05,NNW,335,10.0,15.0,21,0.00,,,0.00,0.0,meteohub,2013-03-04 08:02:00,
2013-03-04 03:07:00,22.5,28.6,30.05,WNW,294,4.0,15.0,20,0.00,,,0.00,0.0,meteohub,2013-03-04 08:07:00,
2013-03-04 03:12:00,22.5,29.7,30.06,NW,315,12.0,15.0,21,0.00,,,0.00,0.0,meteohub,2013-03-04 08:12:00,
2013-03-04 03:17:00,22.5,28.6,30.05,NW,326,5.0,12.0,20,0.00,,,0.00,0.0,meteohub,2013-03-04 08:17:00,
2013-03-04 03:22:00,22.5,29.7,30.06,WNW,296,9.0,12.0,21,0.00,,,0.00,0.0,meteohub,2013-03-04 08:22:00,
2013-03-04 03:27:00,22.5,29.7,30.06,WNW,284,4.0,12.0,21,0.00,,,0.00,0.0,meteohub,2013-03-04 08:27:00,
2013-03-04 03:32:00,22.5,29.7,30.06,NW,314,5.0,13.0,21,0.00,,,0.00,0.0,meteohub,2013-03-04 08:32:00,
2013-03-04 03:37:00,22.5,29.7,30.06,WNW,296,9.0,13.0,21,0.00,,,0.00,0.0,meteohub,2013-03-04 08:37:00,
2013-03-04 03:42:00,22.5,29.7,30.06,West,281,3.0,14.0,21,0.00,,,0.00,0.0,meteohub,2013-03-04 08:42:00,
2013-03-04 03:47:00,22.6,29.7,30.06,NNW,327,5.0,14.0,21,0.00,,,0.00,0.0,meteohub,2013-03-04 08:47:00,
2013-03-04 03:52:00,22.6,29.7,30.06,North,350,6.0,14.0,21,0.00,,,0.00,0.0,meteohub,2013-03-04 08:52:00,
2013-03-04 04:02:00,22.6,29.7,30.06,NNW,348,6.0,12.0,21,0.00,,,0.00,0.0,meteohub,2013-03-04 09:02:00,
2013-03-04 04:07:00,22.6,29.7,30.06,NW,309,9.0,13.0,21,0.00,,,0.00,0.0,meteohub,2013-03-04 09:07:00,
2013-03-04 04:12:00,22.6,29.7,30.06,North,355,10.0,13.0,21,0.00,,,0.00,0.0,meteohub,2013-03-04 09:12:00,
2013-03-04 04:17:00,22.8,29.7,30.06,NNE,15,6.0,14.0,21,0.00,,,0.00,0.0,meteohub,2013-03-04 09:17:00,
2013-03-04 04:22:00,22.8,29.7,30.06,NNE,13,4.0,14.0,21,0.00,,,0.00,0.0,meteohub,2013-03-04 09:22:00,
2013-03-04 04:27:00,22.8,29.7,30.06,NW,309,6.0,14.0,21,0.00,,,0.00,0.0,meteohub,2013-03-04 09:27:00,
2013-03-04 04:32:00,22.8,28.6,30.06,WNW,288,8.0,13.0,20,0.00,,,0.00,0.0,meteohub,2013-03-04 09:32:00,
2013-03-04 04:37:00,22.8,29.7,30.06,NW,305,6.0,12.0,21,0.00,,,0.00,0.0,meteohub,2013-03-04 09:37:00,
2013-03-04 04:42:00,22.8,28.6,30.07,WNW,286,9.0,13.0,20,0.00,,,0.00,0.0,meteohub,2013-03-04 09:42:00,
2013-03-04 04:47:00,22.8,28.6,30.07,NW,316,8.0,13.0,20,0.00,,,0.00,0.0,meteohub,2013-03-04 09:47:00,
2013-03-04 04:52:00,22.8,28.6,30.07,NW,304,10.0,12.0,20,0.00,,,0.00,0.0,meteohub,2013-03-04 09:52:00,
2013-03-04 05:02:00,22.8,28.6,30.08,WSW,245,4.0,12.0,20,0.00,,,0.00,0.0,meteohub,2013-03-04 10:02:00,
2013-03-04 05:07:00,22.6,28.6,30.08,NNW,329,5.0,11.0,20,0.00,,,0.00,0.0,meteohub,2013-03-04 10:07:00,
2013-03-04 05:12:00,22.6,28.6,30.08,West,269,4.0,11.0,20,0.00,,,0.00,0.0,meteohub,2013-03-04 10:12:00,
2013-03-04 05:17:00,22.6,28.6,30.08,North,355,5.0,11.0,20,0.00,,,0.00,0.0,meteohub,2013-03-04 10:17:00,
2013-03-04 05:22:00,22.5,28.6,30.08,WNW,293,4.0,10.0,20,0.00,,,0.00,0.0,meteohub,2013-03-04 10:22:00,
2013-03-04 05:27:00,22.5,28.6,30.08,NW,319,4.0,10.0,20,0.00,,,0.00,0.0,meteohub,2013-03-04 10:27:00,
2013-03-04 05:37:00,22.5,28.6,30.09,WNW,285,8.0,13.0,20,0.00,,,0.00,0.0,meteohub,2013-03-04 10:37:00,
2013-03-04 05:42:00,22.5,28.6,30.09,West,277,2.0,13.0,20,0.00,,,0.00,0.0,meteohub,2013-03-04 10:42:00,
2013-03-04 05:47:00,22.5,28.6,30.09,NW,313,2.0,9.0,20,0.00,,,0.00,0.0,meteohub,2013-03-04 10:47:00,
2013-03-04 05:52:00,22.3,28.6,30.09,WSW,252,3.0,9.0,20,0.00,,,0.00,0.0,meteohub,2013-03-04 10:52:00,
2013-03-04 05:57:00,22.3,28.6,30.09,West,260,3.0,8.0,20,0.00,,,0.00,0.0,meteohub,2013-03-04 10:57:00,
2013-03-04 06:02:00,22.3,28.6,30.10,WSW,256,3.0,8.0,20,0.00,,,0.00,0.0,meteohub,2013-03-04 11:02:00,
2013-03-04 06:07:00,22.1,28.6,30.10,WNW,290,0.0,10.0,20,0.00,,,0.00,0.0,meteohub,2013-03-04 11:07:00,
2013-03-04 06:12:00,21.9,28.6,30.10,NW,315,0.0,10.0,20,0.00,,,0.00,0.0,meteohub,2013-03-04 11:12:00,
2013-03-04 06:17:00,21.9,27.3,30.10,West,263,3.0,10.0,19,0.00,,,0.00,0.0,meteohub,2013-03-04 11:17:00,
2013-03-04 06:22:00,22.1,27.3,30.11,WNW,292,3.0,8.0,19,0.00,,,0.00,0.0,meteohub,2013-03-04 11:22:00,
2013-03-04 06:32:00,22.3,28.6,30.12,WSW,246,4.0,7.0,20,0.00,,,0.00,0.0,meteohub,2013-03-04 11:32:00,
2013-03-04 06:37:00,22.5,28.6,30.12,WSW,254,5.0,8.0,20,0.00,,,0.00,0.0,meteohub,2013-03-04 11:37:00,
2013-03-04 06:42:00,22.5,28.6,30.12,NNW,344,3.0,8.0,20,0.00,,,0.00,0.0,meteohub,2013-03-04 11:42:00,
2013-03-04 06:47:00,22.5,28.6,30.12,WNW,287,4.0,8.0,20,0.00,,,0.00,0.0,meteohub,2013-03-04 11:47:00,
2013-03-04 06:52:00,22.5,28.6,30.12,West,276,2.0,11.0,20,0.00,,,0.00,0.0,meteohub,2013-03-04 11:52:00,
2013-03-04 06:57:00,22.5,28.6,30.12,WSW,253,2.0,11.0,20,0.00,,,0.00,5.0,meteohub,2013-03-04 11:57:00,
2013-03-04 07:02:00,22.5,28.6,30.12,NW,304,5.0,8.0,20,0.00,,,0.00,7.0,meteohub,2013-03-04 12:02:00,
2013-03-04 07:07:00,22.3,28.8,30.12,NW,321,2.0,8.0,20,0.00,,,0.00,11.0,meteohub,2013-03-04 12:07:00,
2013-03-04 07:12:00,22.1,28.8,30.12,WSW,243,7.0,7.0,20,0.00,,,0.00,14.0,meteohub,2013-03-04 12:12:00,
2013-03-04 07:17:00,21.6,28.8,30.12,SSW,196,0.0,9.0,20,0.00,,,0.00,18.0,meteohub,2013-03-04 12:17:00,
2013-03-04 07:22:00,20.8,28.8,30.13,NE,42,0.0,9.0,20,0.00,,,0.00,19.0,meteohub,2013-03-04 12:22:00,
2013-03-04 07:27:00,20.7,28.8,30.13,SE,125,0.0,9.0,20,0.00,,,0.00,26.0,meteohub,2013-03-04 12:27:00,
2013-03-04 07:32:00,20.8,28.8,30.13,SE,125,0.0,3.0,20,0.00,,,0.00,37.0,meteohub,2013-03-04 12:32:00,
2013-03-04 07:37:00,21.2,28.9,30.13,SSW,202,0.0,3.0,20,0.00,,,0.00,49.0,meteohub,2013-03-04 12:37:00,
2013-03-04 07:42:00,21.4,28.9,30.13,SW,216,1.0,3.0,20,0.00,,,0.00,67.0,meteohub,2013-03-04 12:42:00,
2013-03-04 07:47:00,21.7,28.9,30.13,West,281,1.0,3.0,20,0.00,,,0.00,86.0,meteohub,2013-03-04 12:47:00,
2013-03-04 07:52:00,21.9,30.2,30.13,WSW,253,2.0,4.0,21,0.00,,,0.00,100.0,meteohub,2013-03-04 12:52:00,
2013-03-04 07:57:00,22.3,30.2,30.13,West,261,2.0,4.0,21,0.00,,,0.00,127.0,meteohub,2013-03-04 12:57:00,
2013-03-04 08:02:00,22.6,30.6,30.13,SW,235,0.0,4.0,21,0.00,,,0.00,144.0,meteohub,2013-03-04 13:02:00,
2013-03-04 08:07:00,23.4,30.6,30.13,West,275,0.0,4.0,21,0.00,,,0.00,167.0,meteohub,2013-03-04 13:07:00,
2013-03-04 08:12:00,23.9,30.6,30.13,WSW,244,1.0,2.0,21,0.00,,,0.00,188.0,meteohub,2013-03-04 13:12:00,
2013-03-04 08:17:00,24.3,30.6,30.13,West,281,0.0,6.0,21,0.00,,,0.00,213.0,meteohub,2013-03-04 13:17:00,
2013-03-04 08:22:00,24.4,30.6,30.13,WNW,294,1.0,6.0,21,0.00,,,0.00,234.0,meteohub,2013-03-04 13:22:00,
2013-03-04 08:27:00,24.8,30.6,30.13,SW,221,1.0,6.0,21,0.00,,,0.00,253.0,meteohub,2013-03-04 13:27:00,
2013-03-04 08:32:00,25.3,30.6,30.13,West,265,3.0,5.0,21,0.00,,,0.00,271.0,meteohub,2013-03-04 13:32:00,
2013-03-04 08:37:00,25.7,30.6,30.14,West,265,4.0,5.0,21,0.00,,,0.00,290.0,meteohub,2013-03-04 13:37:00,
2013-03-04 08:42:00,25.9,30.6,30.14,SW,218,4.0,7.0,21,0.00,,,0.00,311.0,meteohub,2013-03-04 13:42:00,
2013-03-04 08:47:00,26.2,30.6,30.14,West,277,3.0,7.0,21,0.00,,,0.00,327.0,meteohub,2013-03-04 13:47:00,
2013-03-04 08:52:00,26.6,30.6,30.14,West,265,5.0,7.0,21,0.00,,,0.00,343.0,meteohub,2013-03-04 13:52:00,
2013-03-04 08:57:00,27.1,30.6,30.14,SW,232,5.0,8.0,21,0.00,,,0.00,348.0,meteohub,2013-03-04 13:57:00,
2013-03-04 09:02:00,27.7,30.6,30.14,West,272,4.0,8.0,21,0.00,,,0.00,381.0,meteohub,2013-03-04 14:02:00,
2013-03-04 09:07:00,27.9,30.7,30.14,WNW,288,2.0,9.0,21,0.00,,,0.00,399.0,meteohub,2013-03-04 14:07:00,
2013-03-04 09:12:00,27.9,30.7,30.14,SW,227,4.0,9.0,21,0.00,,,0.00,413.0,meteohub,2013-03-04 14:12:00,
2013-03-04 09:17:00,28.8,29.7,30.14,West,276,7.0,8.0,20,0.00,,,0.00,431.0,meteohub,2013-03-04 14:17:00,
2013-03-04 09:22:00,29.1,29.7,30.14,WNW,292,1.0,8.0,20,0.00,,,0.00,454.0,meteohub,2013-03-04 14:22:00,
2013-03-04 09:27:00,29.7,30.7,30.14,WSW,256,8.0,8.0,21,0.00,,,0.00,469.0,meteohub,2013-03-04 14:27:00,
2013-03-04 09:32:00,29.5,29.7,30.14,West,269,3.0,11.0,20,0.00,,,0.00,482.0,meteohub,2013-03-04 14:32:00,
2013-03-04 09:37:00,29.7,29.7,30.14,SSW,203,4.0,12.0,20,0.00,,,0.00,497.0,meteohub,2013-03-04 14:37:00,
2013-03-04 09:42:00,30.6,29.7,30.13,West,259,6.0,12.0,20,0.00,,,0.00,520.0,meteohub,2013-03-04 14:42:00,
2013-03-04 09:47:00,30.9,29.7,30.13,South,176,3.0,9.0,20,0.00,,,0.00,533.0,meteohub,2013-03-04 14:47:00,
2013-03-04 09:52:00,31.8,28.4,30.13,West,261,7.0,9.0,19,0.00,,,0.00,550.0,meteohub,2013-03-04 14:52:00,
2013-03-04 09:57:00,31.6,28.2,30.14,WSW,252,6.0,10.0,19,0.00,,,0.00,566.0,meteohub,2013-03-04 14:57:00,
2013-03-04 10:02:00,31.8,28.2,30.13,WNW,291,4.0,10.0,19,0.00,,,0.00,580.0,meteohub,2013-03-04 15:02:00,
2013-03-04 10:07:00,32.5,28.2,30.13,WNW,296,3.0,10.0,19,0.00,,,0.00,598.0,meteohub,2013-03-04 15:07:00,
2013-03-04 10:12:00,32.4,29.5,30.14,West,259,6.0,9.0,20,0.00,,,0.00,612.0,meteohub,2013-03-04 15:12:00,
2013-03-04 10:17:00,32.4,29.7,30.13,South,180,5.0,10.0,20,0.00,,,0.00,624.0,meteohub,2013-03-04 15:17:00,
2013-03-04 10:22:00,34.0,29.7,30.13,West,264,6.0,10.0,20,0.00,,,0.00,636.0,meteohub,2013-03-04 15:22:00,
2013-03-04 10:27:00,34.0,29.7,30.13,West,273,3.0,10.0,20,0.00,,,0.00,650.0,meteohub,2013-03-04 15:27:00,
2013-03-04 10:32:00,34.3,28.4,30.13,West,267,6.0,10.0,19,0.00,,,0.00,666.0,meteohub,2013-03-04 15:32:00,
2013-03-04 10:37:00,35.1,28.4,30.13,WSW,254,5.0,9.0,19,0.00,,,0.00,599.0,meteohub,2013-03-04 15:37:00,
2013-03-04 10:42:00,35.8,28.4,30.13,West,275,4.0,9.0,19,0.00,,,0.00,686.0,meteohub,2013-03-04 15:42:00,
2013-03-04 10:47:00,36.3,28.4,30.13,West,259,3.0,9.0,19,0.00,,,0.00,703.0,meteohub,2013-03-04 15:47:00,
2013-03-04 10:52:00,36.7,28.4,30.13,WSW,257,4.0,13.0,19,0.00,,,0.00,712.0,meteohub,2013-03-04 15:52:00,
2013-03-04 10:57:00,37.2,28.4,30.12,NNW,331,3.0,13.0,19,0.00,,,0.00,710.0,meteohub,2013-03-04 15:57:00,
2013-03-04 11:02:00,37.6,28.4,30.12,West,264,4.0,13.0,19,0.00,,,0.00,733.0,meteohub,2013-03-04 16:02:00,
2013-03-04 11:07:00,37.8,28.4,30.12,West,275,3.0,9.0,19,0.00,,,0.00,738.0,meteohub,2013-03-04 16:07:00,
2013-03-04 11:12:00,37.9,28.4,30.12,West,269,3.0,9.0,19,0.00,,,0.00,745.0,meteohub,2013-03-04 16:12:00,
2013-03-04 11:17:00,38.1,28.4,30.12,West,260,2.0,9.0,19,0.00,,,0.00,759.0,meteohub,2013-03-04 16:17:00,
2013-03-04 11:22:00,39.0,28.4,30.12,WSW,251,2.0,9.0,19,0.00,,,0.00,761.0,meteohub,2013-03-04 16:22:00,
2013-03-04 11:27:00,39.6,28.4,30.12,WSW,257,5.0,10.0,19,0.00,,,0.00,772.0,meteohub,2013-03-04 16:27:00,
2013-03-04 11:32:00,40.1,28.4,30.11,West,276,3.0,10.0,19,0.00,,,0.00,780.0,meteohub,2013-03-04 16:32:00,
2013-03-04 11:37:00,39.9,28.4,30.11,West,260,2.0,9.0,19,0.00,,,0.00,784.0,meteohub,2013-03-04 16:37:00,
2013-03-04 11:42:00,41.4,28.4,30.11,West,265,3.0,9.0,19,0.00,,,0.00,796.0,meteohub,2013-03-04 16:42:00,
2013-03-04 11:47:00,41.4,28.4,30.11,West,260,4.0,9.0,19,0.00,,,0.00,798.0,meteohub,2013-03-04 16:47:00,
2013-03-04 11:52:00,41.9,28.4,30.11,West,269,5.0,10.0,19,0.00,,,0.00,805.0,meteohub,2013-03-04 16:52:00,
2013-03-04 11:57:00,41.5,28.8,30.11,West,261,7.0,10.0,19,0.00,,,0.00,814.0,meteohub,2013-03-04 16:57:00,
2013-03-04 12:02:00,42.3,30.0,30.11,North,355,5.0,10.0,20,0.00,,,0.00,814.0,meteohub,2013-03-04 17:02:00,
2013-03-04 12:12:00,42.4,30.0,30.10,NNW,344,7.0,13.0,20,0.00,,,0.00,823.0,meteohub,2013-03-04 17:12:00,
2013-03-04 12:17:00,43.2,30.0,30.10,WSW,249,8.0,13.0,20,0.00,,,0.00,826.0,meteohub,2013-03-04 17:17:00,
2013-03-04 12:22:00,43.5,30.0,30.11,WNW,285,5.0,13.0,20,0.00,,,0.00,830.0,meteohub,2013-03-04 17:22:00,
2013-03-04 12:27:00,43.3,30.0,30.11,West,262,4.0,13.0,20,0.00,,,0.00,833.0,meteohub,2013-03-04 17:27:00,
2013-03-04 12:32:00,43.5,30.0,30.10,West,275,8.0,12.0,20,0.00,,,0.00,833.0,meteohub,2013-03-04 17:32:00,
2013-03-04 12:37:00,44.1,30.0,30.10,West,269,3.0,11.0,20,0.00,,,0.00,814.0,meteohub,2013-03-04 17:37:00,
2013-03-04 12:42:00,44.1,30.2,30.10,WSW,237,2.0,11.0,20,0.00,,,0.00,835.0,meteohub,2013-03-04 17:42:00,
2013-03-04 12:47:00,43.3,30.2,30.10,SW,228,5.0,11.0,20,0.00,,,0.00,835.0,meteohub,2013-03-04 17:47:00,
2013-03-04 12:52:00,43.2,30.2,30.09,SW,221,0.0,9.0,20,0.00,,,0.00,833.0,meteohub,2013-03-04 17:52:00,
2013-03-04 12:57:00,43.3,30.2,30.09,SSW,208,2.0,9.0,20,0.00,,,0.00,833.0,meteohub,2013-03-04 17:57:00,
2013-03-04 13:02:00,44.8,30.4,30.09,NW,319,3.0,9.0,20,0.00,,,0.00,833.0,meteohub,2013-03-04 18:02:00,
2013-03-04 13:07:00,44.8,30.4,30.09,NNW,333,1.0,7.0,20,0.00,,,0.00,830.0,meteohub,2013-03-04 18:07:00,
2013-03-04 13:12:00,45.7,30.4,30.08,SW,232,3.0,10.0,20,0.00,,,0.00,828.0,meteohub,2013-03-04 18:12:00,
2013-03-04 13:22:00,45.3,30.4,30.07,NW,323,3.0,9.0,20,0.00,,,0.00,817.0,meteohub,2013-03-04 18:22:00,
2013-03-04 13:27:00,45.1,30.4,30.07,NW,311,6.0,10.0,20,0.00,,,0.00,816.0,meteohub,2013-03-04 18:27:00,
2013-03-04 13:32:00,45.7,30.4,30.06,South,184,1.0,10.0,20,0.00,,,0.00,809.0,meteohub,2013-03-04 18:32:00,
2013-03-04 13:37:00,46.6,30.4,30.06,SW,223,4.0,10.0,20,0.00,,,0.00,809.0,meteohub,2013-03-04 18:37:00,
2013-03-04 13:42:00,47.7,30.4,30.06,WNW,301,2.0,7.0,20,0.00,,,0.00,803.0,meteohub,2013-03-04 18:42:00,
2013-03-04 13:47:00,47.7,30.4,30.05,SW,236,1.0,8.0,20,0.00,,,0.00,796.0,meteohub,2013-03-04 18:47:00,
2013-03-04 13:52:00,47.8,30.6,30.05,SW,232,0.0,8.0,20,0.00,,,0.00,791.0,meteohub,2013-03-04 18:52:00,
2013-03-04 13:57:00,46.8,30.6,30.05,ENE,75,0.0,8.0,20,0.00,,,0.00,784.0,meteohub,2013-03-04 18:57:00,
2013-03-04 14:02:00,48.4,30.6,30.05,WSW,243,4.0,6.0,20,0.00,,,0.00,780.0,meteohub,2013-03-04 19:02:00,
2013-03-04 14:07:00,47.8,30.6,30.05,West,266,2.0,6.0,20,0.00,,,0.00,772.0,meteohub,2013-03-04 19:07:00,
2013-03-04 14:12:00,47.8,30.6,30.04,SSW,200,1.0,6.0,20,0.00,,,0.00,763.0,meteohub,2013-03-04 19:12:00,
2013-03-04 14:17:00,48.4,30.6,30.04,WNW,299,0.0,6.0,20,0.00,,,0.00,756.0,meteohub,2013-03-04 19:17:00,
2013-03-04 14:22:00,49.3,30.6,30.03,WSW,249,2.0,6.0,20,0.00,,,0.00,738.0,meteohub,2013-03-04 19:22:00,
2013-03-04 14:27:00,48.7,30.6,30.03,ESE,122,0.0,6.0,20,0.00,,,0.00,735.0,meteohub,2013-03-04 19:27:00,
2013-03-04 14:32:00,49.5,30.6,30.03,WSW,248,1.0,6.0,20,0.00,,,0.00,729.0,meteohub,2013-03-04 19:32:00,
2013-03-04 14:42:00,49.1,30.6,30.03,WSW,240,0.0,6.0,20,0.00,,,0.00,707.0,meteohub,2013-03-04 19:42:00,
2013-03-04 14:47:00,49.5,30.6,30.03,SSE,163,0.0,6.0,20,0.00,,,0.00,696.0,meteohub,2013-03-04 19:47:00,
2013-03-04 14:52:00,49.8,30.6,30.03,WSW,249,5.0,6.0,20,0.00,,,0.00,689.0,meteohub,2013-03-04 19:52:00,
2013-03-04 14:57:00,49.8,30.6,30.03,West,266,1.0,9.0,20,0.00,,,0.00,684.0,meteohub,2013-03-04 19:57:00,
2013-03-04 15:02:00,49.6,30.6,30.03,East,91,0.0,9.0,20,0.00,,,0.00,680.0,meteohub,2013-03-04 20:02:00,
2013-03-04 15:07:00,50.7,30.4,30.02,SE,139,0.0,6.0,20,0.00,,,0.00,663.0,meteohub,2013-03-04 20:07:00,
2013-03-04 15:12:00,51.1,30.4,30.02,WNW,289,6.0,6.0,20,0.00,,,0.00,536.0,meteohub,2013-03-04 20:12:00,
2013-03-04 15:17:00,50.5,30.4,30.02,NW,318,0.0,6.0,20,0.00,,,0.00,478.0,meteohub,2013-03-04 20:17:00,
2013-03-04 15:22:00,50.5,30.4,30.02,North,355,2.0,6.0,20,0.00,,,0.00,229.0,meteohub,2013-03-04 20:22:00,
2013-03-04 15:27:00,50.2,30.4,30.02,WNW,292,0.0,6.0,20,0.00,,,0.00,381.0,meteohub,2013-03-04 20:27:00,
2013-03-04 15:32:00,50.5,30.4,30.02,NW,309,4.0,4.0,20,0.00,,,0.00,513.0,meteohub,2013-03-04 20:32:00,
2013-03-04 15:37:00,50.9,31.6,30.01,WNW,301,0.0,6.0,21,0.00,,,0.00,345.0,meteohub,2013-03-04 20:37:00,
2013-03-04 15:42:00,50.2,31.6,30.02,NW,325,0.0,6.0,21,0.00,,,0.00,186.0,meteohub,2013-03-04 20:42:00,
2013-03-04 15:47:00,50.4,30.4,30.02,WNW,302,2.0,5.0,20,0.00,,,0.00,171.0,meteohub,2013-03-04 20:47:00,
2013-03-04 15:52:00,49.6,31.6,30.02,North,355,2.0,5.0,21,0.00,,,0.00,278.0,meteohub,2013-03-04 20:52:00,
2013-03-04 15:57:00,49.5,31.6,30.02,North,5,0.0,3.0,21,0.00,,,0.00,165.0,meteohub,2013-03-04 20:57:00,
2013-03-04 16:02:00,50.2,31.6,30.02,SE,125,1.0,3.0,21,0.00,,,0.00,193.0,meteohub,2013-03-04 21:02:00,
2013-03-04 16:07:00,50.0,31.6,30.02,South,180,3.0,4.0,21,0.00,,,0.00,202.0,meteohub,2013-03-04 21:07:00,
2013-03-04 16:12:00,49.3,31.6,30.02,ESE,103,5.0,8.0,21,0.00,,,0.00,274.0,meteohub,2013-03-04 21:12:00,
2013-03-04 16:17:00,49.5,31.6,30.02,ESE,121,4.0,9.0,21,0.00,,,0.00,446.0,meteohub,2013-03-04 21:17:00,
2013-03-04 16:22:00,49.8,30.4,30.02,SE,128,3.0,9.0,20,0.00,,,0.00,246.0,meteohub,2013-03-04 21:22:00,
2013-03-04 16:27:00,49.6,31.5,30.02,East,100,6.0,11.0,21,0.00,,,0.00,292.0,meteohub,2013-03-04 21:27:00,
2013-03-04 16:32:00,49.5,31.5,30.02,SE,140,5.0,11.0,21,0.00,,,0.00,241.0,meteohub,2013-03-04 21:32:00,
2013-03-04 16:37:00,49.5,31.5,30.02,SE,129,2.0,11.0,21,0.00,,,0.00,183.0,meteohub,2013-03-04 21:37:00,
2013-03-04 16:42:00,48.9,31.5,30.02,ESE,123,3.0,10.0,21,0.00,,,0.00,149.0,meteohub,2013-03-04 21:42:00,
2013-03-04 16:47:00,48.7,31.5,30.02,East,92,1.0,7.0,21,0.00,,,0.00,139.0,meteohub,2013-03-04 21:47:00,
2013-03-04 16:52:00,48.4,31.5,30.02,ESE,116,8.0,8.0,21,0.00,,,0.00,116.0,meteohub,2013-03-04 21:52:00,
2013-03-04 16:57:00,48.0,31.5,30.02,ESE,115,5.0,9.0,21,0.00,,,0.00,109.0,meteohub,2013-03-04 21:57:00,
2013-03-04 17:02:00,47.8,31.5,30.02,East,94,3.0,9.0,21,0.00,,,0.00,90.0,meteohub,2013-03-04 22:02:00,
2013-03-04 17:07:00,47.5,31.5,30.02,East,98,3.0,9.0,21,0.00,,,0.00,104.0,meteohub,2013-03-04 22:07:00,
2013-03-04 17:12:00,47.5,31.5,30.02,East,101,0.0,9.0,21,0.00,,,0.00,105.0,meteohub,2013-03-04 22:12:00,
2013-03-04 17:17:00,47.5,31.5,30.02,East,95,5.0,9.0,21,0.00,,,0.00,74.0,meteohub,2013-03-04 22:17:00,
2013-03-04 17:22:00,47.1,31.3,30.02,ESE,109,2.0,9.0,21,0.00,,,0.00,58.0,meteohub,2013-03-04 22:22:00,
2013-03-04 17:27:00,47.1,31.3,30.02,East,82,1.0,9.0,21,0.00,,,0.00,54.0,meteohub,2013-03-04 22:27:00,
2013-03-04 17:32:00,47.1,31.3,30.02,SE,144,2.0,9.0,21,0.00,,,0.00,51.0,meteohub,2013-03-04 22:32:00,
2013-03-04 17:37:00,47.1,31.3,30.03,SE,126,3.0,7.0,21,0.00,,,0.00,51.0,meteohub,2013-03-04 22:37:00,
2013-03-04 17:47:00,46.9,31.3,30.03,SSE,155,0.0,7.0,21,0.00,,,0.00,46.0,meteohub,2013-03-04 22:47:00,
2013-03-04 17:52:00,46.9,31.3,30.02,NNE,19,1.0,7.0,21,0.00,,,0.00,42.0,meteohub,2013-03-04 22:52:00,
2013-03-04 17:57:00,46.8,30.9,30.03,NNE,15,1.0,7.0,21,0.00,,,0.00,39.0,meteohub,2013-03-04 22:57:00,
2013-03-04 18:02:00,46.6,30.9,30.03,NE,44,3.0,5.0,21,0.00,,,0.00,35.0,meteohub,2013-03-04 23:02:00,
2013-03-04 18:07:00,46.2,30.9,30.03,NE,54,3.0,5.0,21,0.00,,,0.00,33.0,meteohub,2013-03-04 23:07:00,
2013-03-04 18:12:00,46.2,30.9,30.03,SE,132,2.0,5.0,21,0.00,,,0.00,30.0,meteohub,2013-03-04 23:12:00,
2013-03-04 18:17:00,46.0,30.9,30.03,East,91,5.0,5.0,21,0.00,,,0.00,23.0,meteohub,2013-03-04 23:17:00,
2013-03-04 18:22:00,45.9,30.9,30.04,ENE,60,2.0,5.0,21,0.00,,,0.00,9.0,meteohub,2013-03-04 23:22:00,
2013-03-04 18:27:00,45.7,30.9,30.04,East,94,1.0,5.0,21,0.00,,,0.00,0.0,meteohub,2013-03-04 23:27:00,
2013-03-04 18:32:00,45.3,30.9,30.04,East,86,3.0,6.0,21,0.00,,,0.00,0.0,meteohub,2013-03-04 23:32:00,
2013-03-04 18:37:00,45.1,30.7,30.04,ESE,107,1.0,6.0,21,0.00,,,0.00,0.0,meteohub,2013-03-04 23:37:00,
2013-03-04 18:42:00,44.8,30.7,30.03,East,88,5.0,6.0,21,0.00,,,0.00,0.0,meteohub,2013-03-04 23:42:00,
2013-03-04 18:47:00,44.6,30.7,30.03,East,86,2.0,7.0,21,0.00,,,0.00,0.0,meteohub,2013-03-04 23:47:00,
2013-03-04 18:52:00,44.2,30.7,30.03,East,87,2.0,7.0,21,0.00,,,0.00,0.0,meteohub,2013-03-04 23:52:00,
2013-03-04 18:57:00,44.1,30.7,30.02,ENE,61,4.0,7.0,21,0.00,,,0.00,0.0,meteohub,2013-03-04 23:57:00,
2013-03-04 19:02:00,43.9,30.7,30.03,ENE,78,1.0,7.0,21,0.00,,,0.00,0.0,meteohub,2013-03-05 00:02:00,
2013-03-04 19:07:00,43.9,30.7,30.03,ESE,119,0.0,7.0,21,0.00,,,0.00,0.0,meteohub,2013-03-05 00:07:00,
2013-03-04 19:12:00,43.7,32.0,30.04,ESE,103,0.0,7.0,22,0.00,,,0.00,0.0,meteohub,2013-03-05 00:12:00,
2013-03-04 19:17:00,43.5,32.0,30.03,ENE,63,5.0,5.0,22,0.00,,,0.00,0.0,meteohub,2013-03-05 00:17:00,
2013-03-04 19:22:00,43.5,32.0,30.03,ENE,59,2.0,8.0,22,0.00,,,0.00,0.0,meteohub,2013-03-05 00:22:00,
2013-03-04 19:27:00,43.3,32.0,30.03,ENE,59,0.0,8.0,22,0.00,,,0.00,0.0,meteohub,2013-03-05 00:27:00,
2013-03-04 19:32:00,43.0,32.0,30.03,ESE,113,2.0,8.0,22,0.00,,,0.00,0.0,meteohub,2013-03-05 00:32:00,
2013-03-04 19:42:00,43.0,32.0,30.03,East,91,3.0,7.0,22,0.00,,,0.00,0.0,meteohub,2013-03-05 00:42:00,
2013-03-04 19:47:00,43.0,32.0,30.02,ESE,107,1.0,7.0,22,0.00,,,0.00,0.0,meteohub,2013-03-05 00:47:00,
2013-03-04 19:52:00,42.8,32.0,30.02,NE,53,0.0,7.0,22,0.00,,,0.00,0.0,meteohub,2013-03-05 00:52:00,
2013-03-04 19:57:00,42.6,32.0,30.02,NE,53,0.0,5.0,22,0.00,,,0.00,0.0,meteohub,2013-03-05 00:57:00,
2013-03-04 20:02:00,41.7,32.0,30.02,NE,53,0.0,5.0,22,0.00,,,0.00,0.0,meteohub,2013-03-05 01:02:00,
2013-03-04 20:07:00,41.0,32.0,30.02,NE,53,0.0,2.0,22,0.00,,,0.00,0.0,meteohub,2013-03-05 01:07:00,
2013-03-04 20:12:00,41.0,32.0,30.02,NE,53,0.0,1.0,22,0.00,,,0.00,0.0,meteohub,2013-03-05 01:12:00,
2013-03-04 20:17:00,40.6,32.0,30.03,NE,53,0.0,1.0,22,0.00,,,0.00,0.0,meteohub,2013-03-05 01:17:00,
2013-03-04 20:22:00,40.5,32.0,30.03,NE,53,0.0,0.0,22,0.00,,,0.00,0.0,meteohub,2013-03-05 01:22:00,
2013-03-04 20:27:00,40.5,32.0,30.02,NE,53,0.0,1.0,22,0.00,,,0.00,0.0,meteohub,2013-03-05 01:27:00,
2013-03-04 20:32:00,40.3,32.0,30.03,NE,53,0.0,1.0,22,0.00,,,0.00,0.0,meteohub,2013-03-05 01:32:00,
2013-03-04 20:42:00,39.6,32.0,30.02,NE,53,0.0,0.0,22,0.00,,,0.00,0.0,meteohub,2013-03-05 01:42:00,
2013-03-04 20:47:00,39.4,31.8,30.02,NE,53,0.0,0.0,22,0.00,,,0.00,0.0,meteohub,2013-03-05 01:47:00,
2013-03-04 20:52:00,39.4,31.8,30.02,ENE,58,0.0,1.0,22,0.00,,,0.00,0.0,meteohub,2013-03-05 01:52:00,
2013-03-04 20:57:00,39.6,31.8,30.02,ENE,58,0.0,2.0,22,0.00,,,0.00,0.0,meteohub,2013-03-05 01:57:00,
2013-03-04 21:02:00,39.9,31.8,30.02,ENE,58,0.0,2.0,22,0.00,,,0.00,0.0,meteohub,2013-03-05 02:02:00,
2013-03-04 21:07:00,40.3,31.8,30.02,ENE,58,0.0,0.0,22,0.00,,,0.00,0.0,meteohub,2013-03-05 02:07:00,
2013-03-04 21:12:00,39.9,31.8,30.02,ENE,57,1.0,2.0,22,0.00,,,0.00,0.0,meteohub,2013-03-05 02:12:00,
2013-03-04 21:22:00,38.7,31.8,30.02,ENE,57,0.0,2.0,22,0.00,,,0.00,0.0,meteohub,2013-03-05 02:22:00,
2013-03-04 21:27:00,38.8,31.8,30.03,ENE,57,0.0,1.0,22,0.00,,,0.00,0.0,meteohub,2013-03-05 02:27:00,
2013-03-04 21:32:00,38.7,31.8,30.03,ENE,57,0.0,0.0,22,0.00,,,0.00,0.0,meteohub,2013-03-05 02:32:00,
2013-03-04 21:37:00,37.9,31.8,30.03,ENE,57,0.0,1.0,22,0.00,,,0.00,0.0,meteohub,2013-03-05 02:37:00,
2013-03-04 21:42:00,37.9,31.8,30.03,ENE,57,0.0,1.0,22,0.00,,,0.00,0.0,meteohub,2013-03-05 02:42:00,
2013-03-04 21:47:00,38.1,31.8,30.02,ENE,57,0.0,1.0,22,0.00,,,0.00,0.0,meteohub,2013-03-05 02:47:00,
2013-03-04 21:52:00,37.8,31.8,30.03,ENE,57,0.0,1.0,22,0.00,,,0.00,0.0,meteohub,2013-03-05 02:52:00,
2013-03-04 21:57:00,37.9,31.8,30.02,ENE,57,0.0,1.0,22,0.00,,,0.00,0.0,meteohub,2013-03-05 02:57:00,
2013-03-04 22:02:00,38.1,31.6,30.02,ENE,57,1.0,1.0,22,0.00,,,0.00,0.0,meteohub,2013-03-05 03:02:00,
2013-03-04 22:07:00,38.5,31.6,30.02,ENE,57,0.0,2.0,22,0.00,,,0.00,0.0,meteohub,2013-03-05 03:07:00,
2013-03-04 22:12:00,38.1,31.6,30.02,ESE,110,0.0,2.0,22,0.00,,,0.00,0.0,meteohub,2013-03-05 03:12:00,
2013-03-04 22:17:00,37.9,31.6,30.03,ESE,107,0.0,3.0,22,0.00,,,0.00,0.0,meteohub,2013-03-05 03:17:00,
2013-03-04 22:22:00,38.1,31.6,30.02,ESE,107,0.0,3.0,22,0.00,,,0.00,0.0,meteohub,2013-03-05 03:22:00,
2013-03-04 22:27:00,38.5,31.6,30.02,ESE,107,0.0,3.0,22,0.00,,,0.00,0.0,meteohub,2013-03-05 03:27:00,
2013-03-04 22:32:00,38.5,31.6,30.02,ESE,108,0.0,2.0,22,0.00,,,0.00,0.0,meteohub,2013-03-05 03:32:00,
2013-03-04 22:37:00,38.7,31.6,30.03,ESE,108,0.0,2.0,22,0.00,,,0.00,0.0,meteohub,2013-03-05 03:37:00,
2013-03-04 22:42:00,38.5,31.6,30.02,ESE,108,0.0,2.0,22,0.00,,,0.00,0.0,meteohub,2013-03-05 03:42:00,
2013-03-04 22:47:00,38.5,32.7,30.02,ESE,108,0.0,2.0,23,0.00,,,0.00,0.0,meteohub,2013-03-05 03:47:00,
2013-03-04 22:52:00,38.7,32.7,30.02,ESE,108,0.0,0.0,23,0.00,,,0.00,0.0,meteohub,2013-03-05 03:52:00,
2013-03-04 22:57:00,38.3,32.7,30.02,ESE,108,0.0,0.0,23,0.00,,,0.00,0.0,meteohub,2013-03-05 03:57:00,
2013-03-04 23:07:00,38.1,32.7,30.01,ESE,108,0.0,0.0,23,0.00,,,0.00,0.0,meteohub,2013-03-05 04:07:00,
2013-03-04 23:17:00,37.2,32.4,30.01,ESE,108,0.0,0.0,23,0.00,,,0.00,0.0,meteohub,2013-03-05 04:17:00,
2013-03-04 23:22:00,37.0,32.4,30.01,ESE,108,0.0,0.0,23,0.00,,,0.00,0.0,meteohub,2013-03-05 04:22:00,
2013-03-04 23:27:00,36.9,32.4,30.01,ESE,108,0.0,0.0,23,0.00,,,0.00,0.0,meteohub,2013-03-05 04:27:00,
2013-03-04 23:32:00,36.9,32.4,30.01,ESE,108,0.0,0.0,23,0.00,,,0.00,0.0,meteohub,2013-03-05 04:32:00,
2013-03-04 23:37:00,36.5,32.4,30.02,ESE,108,0.0,0.0,23,0.00,,,0.00,0.0,meteohub,2013-03-05 04:37:00,
2013-03-04 23:42:00,36.3,32.4,30.02,ESE,108,0.0,0.0,23,0.00,,,0.00,0.0,meteohub,2013-03-05 04:42:00,
2013-03-04 23:47:00,36.1,32.4,30.02,ESE,108,0.0,0.0,23,0.00,,,0.00,0.0,meteohub,2013-03-05 04:47:00,
2013-03-04 23:52:00,36.1,32.4,30.02,ESE,109,1.0,0.0,23,0.00,,,0.00,0.0,meteohub,2013-03-05 04:52:00,
2013-03-04 23:57:00,35.6,32.4,30.02,SW,229,0.0,2.0,23,0.00,,,0.00,0.0,meteohub,2013-03-05 04:57:00,